Weather History for Charlotte, NC

Change the Weather History Date:

Tuesday, August 5, 2003

  Actual Average Record
Temperature  
Mean Temperature 74 °F 78 °F  
Max Temperature 84 °F 89 °F 100 °F (1954)
Min Temperature 64 °F 68 °F 55 °F (1912)
Degree Days  
Heating Degree Days 0 0  
Month to date heating degree days 0  
Since 1 June heating degree days 3  
Since 1 July heating degree days 0  
Cooling Degree Days 9 13  
Month to date cooling degree days 65  
Year to date cooling degree days 959  
Since 1 June cooling degree days 796  
Growing Degree Days 24 (Base 50)    
Moisture  
Dew Point 68 °F    
Average Humidity 89    
Maximum Humidity 100    
Minimum Humidity 63    
Precipitation  
Precipitation 0.02 in 0.15 in 3.01 in (1880)
Month to date precipitation 0.73  
Year to date precipitation 25.11  
Snow  
Snow 0.00 in 0.00 in 0.00 in ()
Month to date snowfall 0.0  
Since 1 June snowfall 0.0  
Since 1 July snowfall 0.0  
Snow Depth -    
Sea Level Pressure  
Sea Level Pressure 29.92 in    
Wind  
Wind Speed 4 mph (SSE)    
Max Wind Speed 13 mph    
Max Gust Speed -    
Visibility 8 miles    
Events Rain , Thunderstorm    
T = Trace of Precipitation, MM = Missing Value Source: NWS Daily Summary

Daily Weather History Graph

Daily Weather History Graph

Search for Another Location

Airport:

Trip Planner

Search our weather history database for the weather conditions in past years. The results will help you decide how hot, cold, wet, or windy it might be!

Date:

Astronomy

Aug. 05, 2003 Rise Set
Actual Time 6:35 AM EDT 8:23 PM EDT
Civil Twilight 6:07 AM EDT 8:51 PM EDT
Nautical Twilight 5:34 AM EDT 9:24 PM EDT
Astronomical Twilight 4:58 AM EDT 9:59 PM EDT
Moon 2:25 PM EDT (8/5) 12:25 AM EDT (8/5)
Length of Visible Light 14h 43m
Length of Day
13h 48m
First Quarter, 54% of the Moon is Illuminated
Aug 5
First Quarter
Aug 12
Full
Aug 19
Last Quarter
Aug 27
New
Sep 3
First Quarter

Hourly Weather History & Observations

Time (EDT) Temp. Heat Index Dew Point Humidity Pressure Visibility Wind Dir Wind Speed Gust Speed Precip Events Conditions
12:51 AM 64.9 °F - 64.0 °F 97% 29.94 in 10.0 mi SSE 6.9 mph - 0.01 in Rain Light Rain
1:51 AM 64.9 °F - 64.0 °F 97% 29.94 in 10.0 mi SSE 3.5 mph - N/A   Mostly Cloudy
2:51 AM 64.0 °F - 64.0 °F 100% 29.94 in 10.0 mi Calm Calm - N/A   Mostly Cloudy
3:51 AM 64.9 °F - 64.0 °F 97% 29.93 in 9.0 mi SE 6.9 mph - N/A   Mostly Cloudy
4:08 AM 66.2 °F - 64.4 °F 94% 29.96 in 9.0 mi SE 5.8 mph - N/A   Mostly Cloudy
4:39 AM 66.2 °F - 64.4 °F 94% 29.95 in 7.0 mi Calm Calm - N/A   Overcast
4:51 AM 66.0 °F - 64.9 °F 96% 29.92 in 9.0 mi WNW 3.5 mph - N/A   Overcast
5:09 AM 66.2 °F - 64.4 °F 94% 29.93 in 9.0 mi Calm Calm - N/A   Overcast
5:51 AM 66.0 °F - 64.9 °F 96% 29.92 in 9.0 mi Calm Calm - N/A   Overcast
6:51 AM 66.9 °F - 66.0 °F 97% 29.93 in 3.0 mi Calm Calm - N/A   Overcast
7:43 AM 66.2 °F - 66.2 °F 100% 29.97 in 2.0 mi Calm Calm - N/A   Overcast
7:51 AM 66.9 °F - 66.0 °F 97% 29.95 in 2.0 mi Calm Calm - N/A   Overcast
7:58 AM 66.2 °F - 66.2 °F 100% 29.96 in 1.0 mi Variable 3.5 mph - N/A   Overcast
8:12 AM 66.2 °F - 66.2 °F 100% 29.97 in 0.5 mi SW 4.6 mph - N/A   Overcast
8:51 AM 68.0 °F - 68.0 °F 100% 29.94 in 2.0 mi South 3.5 mph - N/A   Mist
9:51 AM 70.0 °F - 68.0 °F 93% 29.93 in 5.0 mi South 4.6 mph - N/A   Overcast
10:51 AM 73.0 °F - 69.1 °F 87% 29.94 in 7.0 mi Variable 6.9 mph - N/A   Mostly Cloudy
11:51 AM 73.0 °F - 70.0 °F 90% 29.95 in 7.0 mi Variable 4.6 mph - N/A   Overcast
12:31 PM 75.2 °F - 69.8 °F 83% 29.96 in 7.0 mi South 6.9 mph - N/A   Mostly Cloudy
12:40 PM 75.2 °F - 71.6 °F 89% 29.96 in 8.0 mi South 4.6 mph - N/A   Mostly Cloudy
12:51 PM 77.0 °F - 71.1 °F 82% 29.94 in 8.0 mi SSE 6.9 mph - N/A   Mostly Cloudy
1:51 PM 81.0 °F 84.9 °F 71.1 °F 72% 29.92 in 10.0 mi South 8.1 mph - N/A   Mostly Cloudy
2:51 PM 84.0 °F 88.4 °F 70.0 °F 63% 29.88 in 10.0 mi South 10.4 mph - N/A   Mostly Cloudy
3:51 PM 82.0 °F 86.3 °F 71.1 °F 69% 29.85 in 9.0 mi SSW 6.9 mph - N/A   Mostly Cloudy
4:51 PM 82.9 °F 88.8 °F 73.0 °F 72% 29.83 in 7.0 mi SSE 8.1 mph - 0.00 in   Mostly Cloudy
5:07 PM 82.4 °F 87.2 °F 71.6 °F 70% 29.84 in 6.0 mi Calm Calm - N/A Thunderstorm Unknown
5:38 PM 73.4 °F - 64.4 °F 73% 29.88 in 10.0 mi North 12.7 mph - N/A Thunderstorm Thunderstorm
5:51 PM 72.0 °F - 64.9 °F 78% 29.86 in 10.0 mi WSW 3.5 mph - 0.00 in Rain , Thunderstorm Light Thunderstorms and Rain
6:09 PM 73.4 °F - 66.2 °F 78% 29.89 in 10.0 mi Calm Calm - 0.00 in Rain Light Rain
6:51 PM 73.9 °F - 70.0 °F 87% 29.86 in 10.0 mi Calm Calm - 0.01 in   Overcast
7:51 PM 73.9 °F - 70.0 °F 87% 29.86 in 9.0 mi SSE 9.2 mph - 0.00 in   Mostly Cloudy
8:51 PM 73.0 °F - 71.1 °F 93% 29.87 in 9.0 mi SSE 6.9 mph - N/A   Overcast
9:25 PM 73.4 °F - 71.6 °F 94% 29.90 in 9.0 mi ESE 8.1 mph - N/A   Overcast
9:51 PM 72.0 °F - 70.0 °F 93% 29.89 in 10.0 mi SSE 5.8 mph - N/A   Overcast
10:51 PM 72.0 °F - 71.1 °F 97% 29.89 in 8.0 mi East 3.5 mph - N/A   Overcast
11:51 PM 72.0 °F - 70.0 °F 93% 29.91 in 8.0 mi North 3.5 mph - N/A   Overcast